Regional Weather Roundup
Issued by NWS

Home | Current Version | Previous Version | Text Only | Print | Product List | Glossary Off
Versions: 1 2 3 4 5 6 7 8 9 10 11 12 13 14 15 16 17 18 19 20 21 22 23 24 25 26 27 28 29 30 31 32 33 34 35 36 37 38 39 40 41 42 43 44 45 46 47 48 49 50

000
ASUS44 KMEG 061800
RWRTN
TENNESSEE HOURLY STATE WEATHER ROUNDUP
NATIONAL WEATHER SERVICE MEMPHIS TN
100 PM CDT WED MAY 06 2015

TNZ002-004-019-021-049-052-054-088>092-061900-
WEST TENNESSEE

CITY           SKY/WX    TMP DP  RH WIND       PRES   REMARKS
MEMPHIS INTL   PTSUNNY   84  54  35 S10G16    30.11F
NWS MEMPHIS      N/A     83 N/A N/A MISG        N/A
JACKSON        FAIR      82  53  36 SE8G18    30.13F
DYERSBURG      FAIR      82  50  32 E7        30.13F
PARIS          SUNNY     81  55  41 SE8       30.15F
LEXINGTON      SUNNY     81  52  36 VRB6      30.14F
$$

TNZ008-025-027-028-033-062-065-066-061900-
NORTH MIDDLE TENNESSEE

CITY           SKY/WX    TMP DP  RH WIND       PRES   REMARKS
NASHVILLE      PTSUNNY   82  55  39 VRB3      30.18F
CLARKSVILLE    SUNNY     81  56  42 VRB6      30.16F
CROSSVILLE     MOSUNNY   79  52  38 VRB3      30.22F
$$

TNZ061-075-076-078-094-096-097-061900-
SOUTH MIDDLE TENNESSEE

CITY           SKY/WX    TMP DP  RH WIND       PRES   REMARKS
FAYETTEVILLE     N/A     79  54  41 SW5       30.18F
TULLAHOMA      MOSUNNY   79  48  34 CALM      30.19F
WINCHESTER     SUNNY     81  52  36 S13G22    30.18F
SHELBYVILLE    PTSUNNY   82  55  39 CALM      30.19F
$$

TNZ017-018-042-046-047-061900-
NORTHEAST TENNESSEE

CITY           SKY/WX    TMP DP  RH WIND       PRES   REMARKS
TRI CITIES     MOSUNNY   84  54  35 NE6       30.19F
$$

TNZ012-013-036-069-073-074-061900-
CENTRAL EAST TENNESSEE

CITY           SKY/WX    TMP DP  RH WIND       PRES   REMARKS
KNOXVILLE      MOSUNNY   81  54  39 CALM      30.17F
OAK RIDGE      SUNNY     83  56  39 VRB3      30.19F
GATLINBURG       N/A     81  54  39 NE8       30.16F
$$

TNZ083-085-099-061900-
SOUTHEAST TENNESSEE

CITY           SKY/WX    TMP DP  RH WIND       PRES   REMARKS
CHATTANOOGA    MOSUNNY   82  54  37 NE3       30.18F
$$

SKY/WX REPORTED AS FAIR MEANS FEW OR NO CLOUDS BELOW
12 THOUSAND FEET.



USA.gov is the U.S. government's official web portal to all federal, state and local government web resources and services.